Regional Weather Roundup
Issued by NWS Sioux Falls, SD

Home | Current Version | Previous Version | Text Only | Print | Product List | Glossary On
Versions: 1 2 3 4 5 6 7 8 9 10 11 12 13 14 15 16 17 18 19 20 21 22 23 24 25 26 27 28 29 30 31 32 33 34 35 36 37 38 39 40 41 42 43 44 45 46 47 48 49 50
000
ASUS43 KFSD 280810
RWRFSD

WEATHER ROUNDUP FOR SE SOUTH DAKOTA/SW MINNESOTA/NW IOWA
NATIONAL WEATHER SERVICE SIOUX FALLS SD
300 AM CDT TUE JUL 28 2015

NOTE: "FAIR" INDICATES FEW OR NO CLOUDS BELOW 12,000 FEET WITH NO
SIGNIFICANT WEATHER AND OR OBSTRUCTIONS TO VISIBILITY.


SDZ038>040-050-052>070-280900-
SOUTHEAST SOUTH DAKOTA

CITY           SKY/WX    TMP DP  RH WIND       PRES   REMARKS
BROOKINGS      CLOUDY   N/A N/A N/A S20G36    29.70F THUNDER
CHAMBERLAIN    CLOUDY    66  66  99 SE6       29.71R
HURON          LGT RAIN  68  66  93 E14       29.66F
MADISON        CLOUDY    72  72 100 S16G26    29.72F
MITCHELL       LGT RAIN  69  67  93 CALM      29.74F
SIOUX FALLS    HVY RAIN  74  71  91 S25G33    29.74R FOG
WINNER         FAIR      67  64  90 S8G20     29.70F
YANKTON        PTCLDY    75  70  83 SE8       29.71S
$$

MNZ071-072-080-081-089-090-097-098-280900-
SOUTHWEST MINNESOTA

CITY           SKY/WX    TMP DP  RH WIND       PRES   REMARKS
FAIRMONT       CLOUDY    72  63  73 S14       29.84S
JACKSON        MOCLDY    72  68  88 SE15      29.83F
LUVERNE        PTCLDY    73  68  83 S12G20    29.75F
MARSHALL       CLOUDY    73  64  73 S15       29.74F
MONTEVIDEO     TSTM      72  66  83 S10G16    29.72F
PIPESTONE      MOCLDY    72  66  83 S15G21    29.74F
REDWOOD FALLS  CLOUDY    72  66  81 SE14      29.76F
TRACY          CLOUDY    73  68  83 S14G22    29.74F
WINDOM         MOCLDY    72  66  83 SE14G20   29.79F
WORTHINGTON    CLOUDY    72  64  78 S17G23    29.79F
$$

IAZ001>003-012>014-020>022-031-032-NEZ013-014-SDZ071-280900-
NORTHWEST IOWA

CITY           SKY/WX    TMP DP  RH WIND       PRES   REMARKS
CHEROKEE       MOCLDY    73  70  91 S7        29.81F
DENISON        PTCLDY    73  70  88 S15G24    29.80F
ESTHERVILLE    MOCLDY    70  67  90 S14G23    29.84F
LE MARS        RAIN      73  72  94 S13G26    29.81R
ORANGE CITY    PTCLDY    72  68  88 SE12      29.78F
SHELDON        MOCLDY    72  68  88 SE16G25   29.76F
SIOUX CITY     PTCLDY    76  70  82 S13       29.77F
SPENCER        LGT RAIN  73  67  81 SE16      29.81F
STORM LAKE     CLOUDY    70  70 100 SE12      29.84F
$$

ABBREVIATIONS USED IN REMARKS
   TC - TEMPERATURE IN CELSIUS
  WCI - WIND CHILL INDEX
   HX - HEAT INDEX
  VSB - VISIBILITY



USA.gov is the U.S. government's official web portal to all federal, state and local government web resources and services.